Current Version              Previous Version:    01  02  03  04  05  06  07  08  09  10  11  12  13  14  15  16  17  18  19  20  21  22  23  24  25  26  27  28  29  30  
   31  32  33  34  35  36  37  38  39  40  41  42  43  44  45  46  47  48  49  50  51  52  53  54  55  56  57  58  59  60  

[Printable]
792
ASUS44 KEWX 272010
RWRTX
SOUTH TEXAS REGIONAL WEATHER ROUNDUP
NATIONAL WEATHER SERVICE AUSTIN/SAN ANTONIO TX
200 PM CST THU NOV 27 2014

NOTE: "FAIR" INDICATED FEW OR NO CLOUDS BELOW 12,000 FEET WITH NO
SIGNIFICANT WEATHER AND/OR OBSTRUCTIONS TO VISIBILITY.

* - THESE STATIONS ARE NOT NWS OR FAA STATIONS...AND ARE NOT SUBJECT
    TO NWS AND FAA QUALITY CONTROL.

TXZ171-172-183>190-272100-
TEXAS HILL COUNTRY AND EDWARDS PLATEAU

CITY           SKY/WX    TMP DP  RH WIND       PRES   REMARKS
JUNCTION       SUNNY     64  31  28 E6        30.39F
*LLANO         SUNNY     63  30  29 E7        30.46F
BURNET         SUNNY     59  23  25 SE10      30.45F
*HORSESHOE BAY SUNNY     62  27  26 NE3       30.44F
*KERRVILLE     SUNNY     62  31  30 E7        30.41F
*FREDERICKSBRG SUNNY     59  30  33 NE5       30.42F
*ROCKSPRINGS   SUNNY     66  32  28 MISG      30.41F
*BOERNE STAGE  SUNNY     63  28  27 SE9       30.42F
*CASTROVILLE   SUNNY     65  30  26 E9        30.42F
HONDO          SUNNY     66  31  27 E13       30.42F
*UVALDE        SUNNY     68  36  30 E9        30.41F
DEL RIO        SUNNY     68  36  30 SE8       30.37F
LAUGHLIN AFB   SUNNY     67  37  33 SE12      30.38F
CARRIZO SPRGS  SUNNY     68  37  32 E9        30.37F
$$

TXZ173-191>194-202-209-217>225-228-272100-
CENTRAL AND SOUTH CENTRAL TEXAS

CITY           SKY/WX    TMP DP  RH WIND       PRES   REMARKS
GEORGETOWN     SUNNY     61  27  27 VRB6      30.44F
AUSTIN/BERGSTM SUNNY     62  32  32 MISG      30.43F
AUSTIN/MABRY   SUNNY     62  29  28 VRB6      30.45F
*AUSTIN/EXEC   SUNNY     59  30  33 CALM      30.45F
*LAGO VISTA    SUNNY     62  25  24 E6        30.44F
SAN MARCOS     SUNNY    N/A N/A N/A NE7       30.44F
NEW BRAUNFELS  SUNNY     66  31  27 E6        30.41F
RANDOLPH AFB   SUNNY     64  31  28 E8        30.42F
PT SAN ANTONIO SUNNY     64  32  30 E9        30.40F
SAN ANTONIO    SUNNY     65  31  28 E8        30.42F
STINSON FIELD  SUNNY     64  32  30 E5        30.40F
*PLEASANTON    SUNNY     66  34  29 E7        30.42F
*LA GRANGE     SUNNY     65  33  29 NE3       30.42F
*GIDDINGS      SUNNY     63  26  24 CALM      30.47F
*GONZALES      SUNNY     66  33  28 E5        30.41F
$$

TXZ163>164-176>182-195>201-210>213-226-227-235-272100-
SOUTHEAST TEXAS

CITY           SKY/WX    TMP DP  RH WIND       PRES   REMARKS
COLLEGE STN    SUNNY     63  25  23 CALM      30.44F
*BRYAN         SUNNY     62  26  25 MISG      30.45F
*CALDWELL      SUNNY     63  21  20 CALM      30.47F
*CROCKETT      SUNNY     64  32  29 E5        30.47F
*BRENHAM       SUNNY     64  28  24 N3        30.44F
HUNTSVILLE     SUNNY     63  28  26 CALM      30.43F
CONROE         SUNNY     62  28  27 VRB3      30.44F
HOUSTON BUSH   SUNNY     65  32  29 VRB5      30.42F
HOUSTON HOBBY  SUNNY     65  32  29 E7        30.42F
*HOUSTON SW AP SUNNY     64  35  34 NE6       30.43F
PEARLAND       SUNNY     65  28  24 E9        30.44F
HOUSTON HOOKS  SUNNY     65  29  25 N6        30.43F
ELLINGTON FLD  SUNNY     63  34  34 NE6       30.44F
SUGAR LAND     SUNNY     66  29  24 VRB3      30.42F
*HOUSTON EXEC  SUNNY     64  27  24 NE6       30.44F
*CLEVELAND MUN SUNNY     64  34  32 CALM      30.43F
*WHARTON       SUNNY     67  29  24 NE6       30.42F
*COLUMBUS      FAIR      65  30  26 E5        30.42F
$$

TXZ214>216-236>238-272100-
THE UPPER TEXAS COAST

CITY           SKY/WX    TMP DP  RH WIND       PRES   REMARKS
*ORANGE        SUNNY     64  29  27 CALM      30.42F
PORT ARTHUR    SUNNY     67  33  28 NE7       30.41F
GALVESTON      SUNNY     63  32  31 NE13      30.43F
ANGLETON       SUNNY     65  29  25 E9        30.42F
*BAY CITY        N/A     67  34  29 NE7       30.41F
PALACIOS       SUNNY     67  38  34 E9        30.41F
$$

TXZ229>234-239>247-272100-
TEXAS COASTAL BEND AND RIO GRANDE PLAINS

CITY           SKY/WX    TMP DP  RH WIND       PRES   REMARKS
VICTORIA       SUNNY     68  38  33 VRB6      30.42F
*BEEVILLE      SUNNY     69  40  35 NE8       30.39F
ROCKPORT       SUNNY     67  51  56 E16       30.40F
*PORT ARANSAS  SUNNY     66  56  69 NE17      30.39F
*PORT LAVACA   NOT AVBL
*INGLESIDE     SUNNY     70  53  54 E15G23    30.39F
CORPUS CHRISTI MOSUNNY   70  53  54 E14       30.38F
CORPUS NAS     SUNNY     70  57  63 NE14      30.39F
*ROBSTOWN      SUNNY     72  49  44 E6        30.39F
ALICE          SUNNY     72  47  40 VRB7      30.37F
KINGSVILLE NAS SUNNY     75  52  44 VRB5      30.37F
COTULLA        SUNNY     71  37  28 E12       30.39F
*FAITH RANCH   SUNNY     72  37  28 NE8       30.38F
LAREDO         SUNNY     76  39  26 SE8       30.37F
$$

TXZ248>255-272100-
DEEP SOUTH TEXAS

CITY           SKY/WX    TMP DP  RH WIND       PRES   REMARKS
BROWNSVILLE    MOSUNNY   78  54  43 MISG      30.35F
PORT ISABEL    SUNNY     73  55  53 VRB7      30.35F
*SOUTH PADRE   SUNNY    N/A N/A N/A CALM      30.36F
HARLINGEN      MOSUNNY   76  52  43 E7        30.34F
*HEBBRONVILLE  SUNNY     73  40  30 E7        30.36F
MCALLEN        SUNNY     75  47  36 E5        30.35F
*WESLACO       SUNNY     76  47  34 SE9       30.34F
FALFURRIAS     SUNNY     75  43  31 E8        30.36F
EDINBURG       SUNNY     77  45  31 E8        30.36F
*ZAPATA        SUNNY     75  44  33 NE6       30.34F
$$

TXZ213>215-236>238-242>244-246-247-251-254-255-272100-
CMAN STATIONS

STATION/POSITION TIME  TEMP    WIND        PRES    WAVE
                       AIR SEA DIR/SP/G            HT/PER
                 (UTC) (F)     (DEG/KT/KT) (MB)    (FT/S)
SABINE PASS      2000   60 59   30/  6/ 12 1029.8
SEA RIM ST PARK  2000   60      20/  7/  9 1030.3
NORTH JETTY/GLS  2000   59 60  120/  8/  9   N/A
EAGLE POINT      2000   57 59   10/  4/  6 1030.5
MORGANS POINT    2000   62     100/  4/  5 1030.1
PORT O`CONNOR    2000           60/ 14/ 18   N/A
PORT ARANSAS     2000   63 63   40/ 17/ 18 1029.8
MALAQUITE BEACH  2000   64 64   20/ 11/ 13 1028.4
BAFFIN BAY       2000   65 75   60/  9/ 12 1028.7
PORT ISABEL      2000   69 64   50/  7/  8 1028.1
$$

GMZ080-GMZ150>470-272100-
OFFSHORE BUOY REPORTS

STATION/POSITION TIME  TEMP    WIND        PRES    WAVE
                       AIR SEA DIR/SP/G            HT/PER
                 (UTC) (F)     (DEG/KT/KT) (MB)    (FT/S)
20 E GALVESTON   2000   56 61   40/ 10/ 12 1030.0    2/ 4
90 E PT ARANSAS  2000   65 72   50/ 14/ 17 1029.5    4/ 5
35 NE PT MANSFLD 2000   68 73   30/ 12/ 16 1028.1    2/ 8
200 E PT ISABEL  2000   72 74   20/  8/ 10 1027.3    1/ 4
$$